Flag for U.S.A. Weather past 2 weeks in Tacoma, Washington, U.S.A.

Now
59 °F

Mostly cloudy.


Feels Like: 58 °F
Forecast: 53 / 60 °F
Wind: 6 mph from South

Location: Tacoma Narrows Airport

Current Time: Oct 20, 2014 at 4:43:01 PM

Latest Report: Oct 20, 2014 at 3:53 PM


Visibility: 10 mi

Pressure: 29.76 "Hg

Humidity: 81%

Dew point: 53 °F

Location of TacomaLocation

Historic Weather in Tacoma — Graph

°F

Tacoma temperature yesterday

Maximum temperature yesterday: 70 °F (at 1:53 PM)
Minimum temperature yesterday: 55 °F (at 4:53 AM)
Average temperature yesterday: 61 °F

Past Weeks' High & Low Weather Summary

 TemperatureHumidityPressure
High74 °F (Oct 6, 1:53 PM)100% (Oct 8, 2:53 AM)30.25 "Hg (Oct 8, 2:53 AM)
Low49 °F (Oct 13, 7:53 AM)44% (Oct 13, 2:53 PM)29.50 "Hg (Oct 15, 4:53 AM)
Average58 °F85%29.92 "Hg
* Reported Oct 5 3:53 PM — Oct 20 3:53 PM, Tacoma, Weather by CustomWeather, © 2014

Note: Actual official high and low records may vary slightly from our data, if they occured in-between our weather recording intervals... More about our weather records

Advertising

Tacoma weather history for previous 24 hours

 ConditionsComfort  
Time TempWeatherWind HumidityBarometerVisibility
3:53 PM
Oct 20
59 °FMostly cloudy.6 mph81%29.76 "Hg10 mi
2:53 PM59 °FLight rain. Broken clouds.9 mph81%29.75 "Hg9 mi
1:53 PM60 °FPartly sunny.7 mph80%29.76 "Hg10 mi
12:53 PM60 °FPartly sunny.6 mph83%29.75 "Hg10 mi
11:53 AM59 °FMore clouds than sun.5 mph87%29.76 "Hg10 mi
10:53 AM58 °FBroken clouds.5 mph90%29.75 "Hg10 mi
9:53 AM58 °FBroken clouds.8 mph93%29.75 "Hg10 mi
8:53 AM57 °FBroken clouds.7 mph93%29.74 "Hg10 mi
7:53 AM57 °FLight rain. Mostly cloudy.6 mph93%29.72 "Hg10 mi
6:53 AM56 °FMostly cloudy.7 mph97%29.71 "Hg10 mi
5:53 AM57 °FLight rain. Low clouds.No wind93%29.70 "Hg10 mi
4:53 AM58 °FMostly cloudy.3 mph90%29.70 "Hg10 mi
3:53 AM58 °FLight rain. Mostly cloudy.6 mph90%29.70 "Hg9 mi
2:53 AM58 °FLight rain. Overcast.3 mph93%29.71 "Hg9 mi
1:53 AM58 °FLight rain. Fog.3 mph93%29.71 "Hg6 mi
12:53 AM59 °FOvercast.No wind87%29.70 "Hg10 mi
11:53 PM
Oct 19
59 °FMostly cloudy.No wind87%29.70 "Hg10 mi
10:53 PM59 °FOvercast.3 mph87%29.70 "Hg10 mi
9:53 PM60 °FOvercast.No wind83%29.69 "Hg10 mi
7:53 PM60 °FPassing clouds.8 mph86%29.71 "Hg10 mi
6:53 PM67 °FSunny.10 mph59%29.69 "Hg10 mi
5:53 PM68 °FSunny.12 mph57%29.68 "Hg10 mi
4:53 PM69 °FScattered clouds.12 mph59%29.68 "Hg10 mi
Weather by CustomWeather, © 2014

See weather overviewHow to use our weather pages